Helicity
170 160 153 144 147 139 133 114 93 89 82 66 51 47 40 33 28 25 25 34 25 14 -4 -23 -18 -12 -8 -3 2 -6 -38 -23
206 198 176 151 131 140 143 138 113 106 101 89 70 61 48 42 40 39 27 30 38 31 21 -4 -25 -24 -18 -12 -8 -1 -25 -34
184 220 195 161 142 129 143 153 135 115 114 110 101 78 66 54 40 38 38 34 39 40 32 33 32 11 11 14 11 1 -15 -33
176 225 238 199 143 153 163 172 151 134 121 130 118 89 75 65 44 43 39 46 44 38 37 34 34 38 31 32 44 35 25 6
205 192 219 259 178 169 169 174 163 126 128 135 110 77 70 72 75 75 79 61 71 54 48 49 44 49 53 79 60 57 63 70
233 222 194 222 216 164 148 167 163 148 128 135 115 87 63 130 132 129 108 93 70 73 71 62 54 55 64 50 50 53 62 60
298 268 212 200 241 191 160 148 154 159 141 126 125 88 94 142 130 135 108 97 73 69 77 72 62 42 54 69 63 59 57 58
349 287 268 239 296 240 191 167 119 121 108 110 115 99 106 117 115 108 110 110 87 70 69 68 64 73 64 67 40 43 35 43
350 313 285 215 347 263 245 198 148 126 115 100 114 113 104 113 105 110 102 105 96 93 86 97 100 111 94 55 51 61 81 86
333 362 323 242 307 303 267 234 174 152 169 155 135 135 125 128 124 105 87 110 128 136 140 142 142 121 83 58 61 78 85 90
348 384 377 304 322 305 259 212 156 139 151 125 120 130 132 135 124 108 130 148 161 162 165 138 118 90 65 73 76 84 85 103
344 405 405 364 363 291 260 203 180 152 125 118 112 129 135 150 142 145 162 154 143 126 127 123 114 81 79 82 86 103 123 134
346 423 437 443 387 342 315 248 217 160 161 166 158 178 179 193 174 158 160 160 141 149 147 126 95 106 91 89 94 90 129 159
341 366 428 423 390 361 378 313 224 214 192 178 202 199 219 216 196 194 204 267 285 241 197 162 136 143 126 89 67 68 120 133
377 375 420 480 449 482 429 350 285 246 206 245 233 251 266 321 336 320 301 268 263 237 204 192 160 143 156 123 99 81 83 130
416 518 541 589 560 505 465 416 377 315 300 300 305 375 458 441 400 333 292 277 266 230 207 186 166 127 117 143 170 162 136 105
516 550 635 638 594 523 461 409 428 444 414 419 426 435 430 357 335 317 304 272 252 210 202 183 154 133 126 131 139 148 162 176
564 563 548 587 616 535 439 484 515 532 541 588 562 472 427 394 356 319 293 258 247 214 181 165 140 142 145 143 141 140 127 135
658 641 583 572 533 500 473 464 462 520 537 535 507 470 399 401 284 318 294 241 213 193 175 166 173 174 175 159 160 159 181 196
664 690 668 620 492 442 434 471 480 499 530 543 501 387 475 346 363 253 277 267 195 171 152 155 158 159 164 161 166 213 222 207
Wind_Speed
21 22 24 26 27 29 28 26 23 22 21 18 18 17 17 18 20 21 24 24 27 29 34 36 35 35 33 33 33 33 32 30
17 18 20 22 23 27 26 24 22 19 17 15 14 13 13 15 15 16 18 18 20 21 24 31 38 38 36 35 34 36 36 36
14 15 16 18 19 23 24 22 20 17 14 13 12 9 8 9 8 10 12 12 14 15 17 19 18 13 16 16 14 14 21 31
10 12 15 16 15 19 21 21 18 15 13 12 10 9 8 5 3 6 6 9 17 20 20 21 22 21 18 15 14 14 12 8
8 10 12 14 13 17 19 19 18 16 15 12 10 9 7 3 4 1 7 10 20 25 28 28 25 22 21 16 18 23 24 25
5 6 8 12 12 16 19 19 19 16 16 12 10 8 7 5 6 6 8 14 16 23 25 27 25 26 24 18 21 29 29 36
9 8 8 11 12 16 16 17 18 18 17 13 9 10 7 6 9 10 14 15 17 18 17 23 25 27 27 33 37 36 35 36
13 11 8 10 8 12 14 13 16 18 19 16 12 8 7 8 10 11 18 20 21 27 24 25 33 33 40 36 34 35 35 36
16 13 10 11 5 10 8 12 15 14 18 19 13 9 7 12 16 19 24 29 34 38 41 44 41 38 41 42 42 43 41 43
19 15 13 10 8 7 5 8 8 8 10 12 13 7 8 14 18 22 26 29 33 40 43 40 39 42 44 48 54 54 54 56
22 19 17 12 7 5 8 6 6 5 9 10 9 6 8 12 17 23 24 24 28 30 34 36 43 50 53 55 54 56 60 59
24 22 19 14 8 5 5 6 6 4 6 9 14 8 5 11 17 20 22 24 25 28 35 38 42 48 55 61 65 65 62 61
27 25 21 17 14 10 9 9 8 7 4 3 6 5 5 7 15 19 22 25 28 30 34 39 44 48 65 71 71 73 66 61
26 28 24 22 18 15 15 11 11 8 6 5 4 3 3 2 9 20 23 24 26 30 36 44 49 54 63 72 80 77 70 66
28 30 28 25 22 18 16 15 13 12 10 9 8 7 6 4 9 13 19 26 34 39 43 48 55 56 56 64 77 80 95 82
28 30 30 28 26 24 23 25 24 21 17 12 10 7 7 8 11 17 22 30 37 42 44 49 54 64 67 62 69 77 89 105
29 30 30 29 29 29 27 27 25 20 16 12 10 12 12 12 15 21 26 32 36 42 48 52 55 62 67 73 76 78 78 91
28 29 34 31 32 31 31 30 27 24 20 16 16 16 16 21 19 23 27 31 36 42 46 52 58 62 68 71 75 78 88 89
29 31 34 34 34 35 35 34 31 28 24 21 18 20 20 23 20 23 28 34 38 43 48 54 59 62 65 69 71 73 76 82
30 32 35 35 36 36 37 33 31 28 25 22 20 17 20 17 24 27 30 35 39 44 48 55 59 63 67 69 70 72 74 78
Wind_Direction
83 92 97 102 105 113 119 121 122 121 119 110 102 89 83 78 81 75 79 76 83 98 133 180 183 208 192 199 210 211 205 205
78 87 99 101 104 116 120 125 128 127 124 117 110 97 90 91 81 76 82 66 68 73 99 149 208 219 205 206 209 219 217 215
74 94 103 109 106 117 122 126 131 132 130 128 121 110 99 89 59 69 72 51 24 24 18 11 31 95 97 100 94 125 180 199
78 101 118 118 109 118 122 127 132 137 142 142 140 137 130 108 70 95 58 14 337 334 341 345 347 352 8 25 39 43 33 55
101 105 118 126 115 125 127 133 139 147 153 156 157 159 156 158 315 336 333 334 321 318 318 323 330 339 346 359 358 354 356 351
131 112 117 129 112 126 133 137 145 154 159 164 172 180 186 230 282 287 312 319 320 315 317 323 329 331 334 349 342 337 336 329
175 145 141 134 129 136 131 134 143 153 160 168 182 192 211 253 283 286 296 308 315 320 319 320 322 327 331 322 321 323 325 326
190 174 159 151 131 138 141 135 137 144 155 165 179 193 228 260 277 278 295 299 305 308 313 314 313 316 315 320 323 324 323 324
204 192 178 177 156 144 121 139 141 139 153 159 168 188 251 278 285 290 294 295 296 297 298 301 305 310 313 315 316 318 319 320
217 209 194 192 182 177 168 152 148 148 138 141 162 199 257 285 290 294 299 301 299 296 296 299 301 307 308 308 308 310 312 311
221 217 206 200 205 195 182 187 194 186 177 174 170 191 272 286 295 303 308 306 305 304 302 302 303 302 304 307 310 311 311 312
226 223 216 213 241 252 224 205 210 216 198 187 184 186 262 291 300 301 307 308 308 308 306 306 307 307 307 306 307 309 311 312
234 230 228 221 234 244 247 235 224 221 229 195 169 175 181 296 305 308 309 307 306 306 308 309 310 314 308 306 308 309 310 311
241 234 229 226 238 251 273 258 266 260 263 260 247 225 183 242 303 307 307 312 316 314 311 309 310 313 310 310 309 312 314 317
239 236 234 238 242 257 274 273 277 270 256 261 264 280 283 324 335 329 319 312 310 311 312 311 308 312 315 312 313 312 312 312
237 235 237 241 239 247 244 249 258 269 258 259 262 280 314 327 331 324 321 317 313 312 315 314 312 309 311 314 313 314 313 310
238 234 236 237 245 249 251 257 260 266 262 251 251 285 299 309 316 318 319 318 316 314 314 314 314 312 313 314 313 314 314 311
242 240 247 246 250 253 254 253 254 252 246 248 265 282 297 309 316 318 320 320 318 317 317 315 315 316 315 315 314 315 313 313
246 243 249 251 252 256 259 255 247 243 239 247 257 279 292 304 310 319 321 321 321 320 319 319 319 318 319 318 318 318 318 316
244 247 251 253 254 259 259 253 247 247 243 252 263 275 294 310 315 322 326 324 325 325 323 321 320 320 319 319 320 321 320 319